Time,TemperatureF,DewpointF,PressureIn,WindDirection,WindDirectionDegrees,WindSpeedMPH,WindSpeedGustMPH,Humidity,HourlyPrecipIn,Conditions,Clouds,dailyrainin,SolarRadiationWatts/m^2,SoftwareType,DateUTC
2013-07-04 00:00:00,78.7,76.2,30.13,SE,132,0.0,1.0,92,0.00,,,0.00,0.00,VWS V14.01,2013-07-04 04:00:00,
2013-07-04 00:01:00,78.6,76.1,30.13,SE,132,1.0,2.0,92,0.00,,FEW040,0.00,0.00,VWS V14.01,2013-07-04 04:01:00,
2013-07-04 00:05:00,78.7,76.2,30.14,SE,132,0.0,1.0,92,0.00,,,0.00,0.00,VWS V14.01,2013-07-04 04:05:00,
2013-07-04 00:06:00,78.7,76.5,30.13,SE,132,0.0,0.0,93,0.00,,FEW040,0.00,0.00,VWS V14.01,2013-07-04 04:06:00,
2013-07-04 00:10:00,78.8,76.3,30.13,SE,132,0.0,0.0,92,0.00,,,0.00,0.00,VWS V14.01,2013-07-04 04:10:00,
2013-07-04 00:11:00,78.8,76.6,30.13,SE,132,1.0,2.0,93,0.00,,FEW040,0.00,0.00,VWS V14.01,2013-07-04 04:11:00,
2013-07-04 00:15:00,78.9,76.7,30.13,SE,132,0.0,1.0,93,0.00,,,0.00,0.00,VWS V14.01,2013-07-04 04:15:00,
2013-07-04 00:16:00,79.0,76.5,30.13,SE,132,0.0,0.0,92,0.00,,FEW040,0.00,0.00,VWS V14.01,2013-07-04 04:16:00,
2013-07-04 00:20:00,79.0,76.5,30.13,SE,132,1.0,2.0,92,0.00,,,0.00,0.00,VWS V14.01,2013-07-04 04:20:00,
2013-07-04 00:21:00,79.1,76.6,30.13,SE,132,0.0,1.0,92,0.00,,FEW040,0.00,0.00,VWS V14.01,2013-07-04 04:21:00,
2013-07-04 00:25:00,79.2,76.7,30.13,SE,132,0.0,1.0,92,0.00,,,0.00,0.00,VWS V14.01,2013-07-04 04:25:00,
2013-07-04 00:26:00,79.2,76.7,30.13,SE,132,0.0,0.0,92,0.00,,FEW040,0.00,0.00,VWS V14.01,2013-07-04 04:26:00,
2013-07-04 00:30:00,79.1,76.6,30.13,SE,132,0.0,0.0,92,0.00,,,0.00,0.00,VWS V14.01,2013-07-04 04:30:00,
2013-07-04 00:31:00,79.1,76.6,30.13,SE,132,0.0,0.0,92,0.00,,FEW040,0.00,0.00,VWS V14.01,2013-07-04 04:31:00,
2013-07-04 00:35:00,79.1,76.6,30.12,SE,132,0.0,0.0,92,0.00,,,0.00,0.00,VWS V14.01,2013-07-04 04:35:00,
2013-07-04 00:36:00,79.1,76.6,30.12,SE,132,0.0,0.0,92,0.00,,FEW026,0.00,0.00,VWS V14.01,2013-07-04 04:36:00,
2013-07-04 00:40:00,79.1,76.6,30.12,SE,132,0.0,0.0,92,0.00,,,0.00,0.00,VWS V14.01,2013-07-04 04:40:00,
2013-07-04 00:41:00,79.0,76.5,30.12,SE,132,0.0,0.0,92,0.00,,FEW026,0.00,0.00,VWS V14.01,2013-07-04 04:41:00,
2013-07-04 00:45:00,79.0,76.5,30.12,SE,132,0.0,0.0,92,0.00,,,0.00,0.00,VWS V14.01,2013-07-04 04:45:00,
2013-07-04 00:46:00,78.9,76.4,30.12,SE,132,0.0,0.0,92,0.00,,FEW026,0.00,0.00,VWS V14.01,2013-07-04 04:46:00,
2013-07-04 00:50:00,78.9,76.4,30.13,SE,132,0.0,0.0,92,0.00,,,0.00,0.00,VWS V14.01,2013-07-04 04:50:00,
2013-07-04 00:51:00,78.9,76.4,30.13,ESE,118,1.0,2.0,92,0.00,,FEW026,0.00,0.00,VWS V14.01,2013-07-04 04:51:00,
2013-07-04 00:55:00,78.7,75.9,30.13,NE,47,0.0,9.0,91,0.00,,,0.00,0.00,VWS V14.01,2013-07-04 04:55:00,
2013-07-04 00:56:00,78.4,75.2,30.13,East,84,3.0,5.0,90,0.00,,FEW026,0.00,0.00,VWS V14.01,2013-07-04 04:56:00,
2013-07-04 01:00:00,78.2,74.7,30.13,East,96,1.0,5.0,89,0.00,,,0.00,0.00,VWS V14.01,2013-07-04 05:00:00,
2013-07-04 01:01:00,78.2,74.4,30.13,ENE,74,1.0,5.0,88,0.00,,FEW026,0.00,0.00,VWS V14.01,2013-07-04 05:01:00,
2013-07-04 01:05:00,78.1,74.3,30.12,SE,130,2.0,4.0,88,0.00,,,0.00,0.00,VWS V14.01,2013-07-04 05:05:00,
2013-07-04 01:06:00,78.0,74.2,30.12,SE,134,1.0,2.0,88,0.00,,FEW026,0.00,0.00,VWS V14.01,2013-07-04 05:06:00,
2013-07-04 01:10:00,78.0,74.2,30.12,SE,133,0.0,2.0,88,0.00,,,0.00,0.00,VWS V14.01,2013-07-04 05:10:00,
2013-07-04 01:11:00,78.0,74.2,30.13,SE,133,0.0,0.0,88,0.00,,FEW026,0.00,0.00,VWS V14.01,2013-07-04 05:11:00,
2013-07-04 01:15:00,78.0,74.5,30.12,SE,133,0.0,0.0,89,0.00,,,0.00,0.00,VWS V14.01,2013-07-04 05:15:00,
2013-07-04 01:16:00,78.1,74.6,30.12,SE,133,0.0,0.0,89,0.00,,FEW026,0.00,0.00,VWS V14.01,2013-07-04 05:16:00,
2013-07-04 01:20:00,78.1,74.6,30.12,SE,133,0.0,0.0,89,0.00,,,0.00,0.00,VWS V14.01,2013-07-04 05:20:00,
2013-07-04 01:21:00,78.1,74.6,30.12,SE,133,0.0,0.0,89,0.00,,FEW026,0.00,0.00,VWS V14.01,2013-07-04 05:21:00,
2013-07-04 01:25:00,78.1,74.6,30.12,SE,133,0.0,0.0,89,0.00,,,0.00,0.00,VWS V14.01,2013-07-04 05:25:00,
2013-07-04 01:26:00,78.2,75.0,30.11,SE,133,0.0,0.0,90,0.00,,FEW026,0.00,0.00,VWS V14.01,2013-07-04 05:26:00,
2013-07-04 01:30:00,78.2,75.0,30.11,SE,133,0.0,0.0,90,0.00,,,0.00,0.00,VWS V14.01,2013-07-04 05:30:00,
2013-07-04 01:31:00,78.2,75.0,30.11,WSW,242,2.0,2.0,90,0.00,,FEW026,0.00,0.00,VWS V14.01,2013-07-04 05:31:00,
2013-07-04 01:35:00,78.2,75.0,30.11,WSW,253,1.0,2.0,90,0.00,,,0.00,0.00,VWS V14.01,2013-07-04 05:35:00,
2013-07-04 01:36:00,78.2,75.0,30.11,West,272,2.0,4.0,90,0.00,,-RA,0.00,0.00,VWS V14.01,2013-07-04 05:36:00,
2013-07-04 01:40:00,78.2,75.0,30.11,West,279,2.0,3.0,90,0.00,,,0.00,0.00,VWS V14.01,2013-07-04 05:40:00,
2013-07-04 01:41:00,78.3,75.1,30.11,NW,321,6.0,10.0,90,0.00,,-RA,0.00,0.00,VWS V14.01,2013-07-04 05:41:00,
2013-07-04 01:45:00,78.3,74.8,30.11,WNW,298,3.0,7.0,89,0.00,,,0.00,0.00,VWS V14.01,2013-07-04 05:45:00,
2013-07-04 01:46:00,78.2,74.7,30.11,NW,305,2.0,3.0,89,0.00,,-RA,0.00,0.00,VWS V14.01,2013-07-04 05:46:00,
2013-07-04 01:50:00,78.1,74.6,30.11,NW,321,2.0,3.0,89,0.00,,,0.00,0.00,VWS V14.01,2013-07-04 05:50:00,
2013-07-04 01:51:00,78.0,74.5,30.11,NW,321,0.0,2.0,89,0.00,,,0.00,0.00,VWS V14.01,2013-07-04 05:51:00,
2013-07-04 01:55:00,77.9,74.4,30.12,NW,309,3.0,4.0,89,0.00,,,0.00,0.00,VWS V14.01,2013-07-04 05:55:00,
2013-07-04 01:56:00,77.8,74.6,30.12,WNW,297,2.0,4.0,90,0.00,,BKN032,0.00,0.00,VWS V14.01,2013-07-04 05:56:00,
2013-07-04 02:00:00,77.8,74.6,30.12,NW,309,2.0,5.0,90,0.00,,,0.00,0.00,VWS V14.01,2013-07-04 06:00:00,
2013-07-04 02:01:00,77.7,74.5,30.11,NW,323,2.0,4.0,90,0.00,,BKN032,0.00,0.00,VWS V14.01,2013-07-04 06:01:00,
2013-07-04 02:05:00,77.6,74.4,30.11,NW,325,4.0,4.0,90,0.00,,,0.00,0.00,VWS V14.01,2013-07-04 06:05:00,
2013-07-04 02:06:00,77.6,74.4,30.11,NW,323,2.0,4.0,90,0.00,,BKN032,0.00,0.00,VWS V14.01,2013-07-04 06:06:00,
2013-07-04 02:10:00,77.6,74.4,30.11,West,280,3.0,5.0,90,0.00,,,0.00,0.00,VWS V14.01,2013-07-04 06:10:00,
2013-07-04 02:11:00,77.5,74.3,30.11,WNW,294,0.0,4.0,90,0.00,,BKN032,0.00,0.00,VWS V14.01,2013-07-04 06:11:00,
2013-07-04 02:15:00,77.5,74.3,30.11,WNW,294,0.0,0.0,90,0.00,,,0.00,0.00,VWS V14.01,2013-07-04 06:15:00,
2013-07-04 02:16:00,77.5,74.3,30.11,WNW,300,1.0,2.0,90,0.00,,BKN032,0.00,0.00,VWS V14.01,2013-07-04 06:16:00,
2013-07-04 02:20:00,77.4,74.2,30.11,WNW,300,0.0,1.0,90,0.00,,,0.00,0.00,VWS V14.01,2013-07-04 06:20:00,
2013-07-04 02:21:00,77.4,74.2,30.11,WNW,300,0.0,1.0,90,0.00,,BKN032,0.00,0.00,VWS V14.01,2013-07-04 06:21:00,
2013-07-04 02:25:00,77.4,74.2,30.10,WNW,300,0.0,2.0,90,0.00,,,0.00,0.00,VWS V14.01,2013-07-04 06:25:00,
2013-07-04 02:26:00,77.4,74.2,30.10,WNW,300,1.0,3.0,90,0.00,,BKN032,0.00,0.00,VWS V14.01,2013-07-04 06:26:00,
2013-07-04 02:30:00,77.4,74.6,30.10,NW,304,3.0,5.0,91,0.00,,,0.00,0.00,VWS V14.01,2013-07-04 06:30:00,
2013-07-04 02:31:00,77.4,74.6,30.10,WSW,257,4.0,4.0,91,0.00,,BKN032,0.00,0.00,VWS V14.01,2013-07-04 06:31:00,
2013-07-04 02:35:00,77.3,74.1,30.10,West,262,2.0,3.0,90,0.00,,,0.00,0.00,VWS V14.01,2013-07-04 06:35:00,
2013-07-04 02:36:00,77.4,74.6,30.10,West,271,1.0,2.0,91,0.00,,BKN032,0.00,0.00,VWS V14.01,2013-07-04 06:36:00,
2013-07-04 02:40:00,77.3,74.5,30.10,West,271,2.0,2.0,91,0.00,,,0.00,0.00,VWS V14.01,2013-07-04 06:40:00,
2013-07-04 02:41:00,77.3,74.5,30.10,West,271,2.0,3.0,91,0.00,,BKN049,0.00,0.00,VWS V14.01,2013-07-04 06:41:00,
2013-07-04 02:45:00,77.3,74.5,30.10,West,271,1.0,2.0,91,0.00,,,0.00,0.00,VWS V14.01,2013-07-04 06:45:00,
2013-07-04 02:46:00,77.3,74.5,30.10,West,271,0.0,2.0,91,0.00,,BKN049,0.00,0.00,VWS V14.01,2013-07-04 06:46:00,
2013-07-04 02:50:00,77.3,74.5,30.10,West,271,0.0,2.0,91,0.00,,,0.00,0.00,VWS V14.01,2013-07-04 06:50:00,
2013-07-04 02:51:00,77.3,74.5,30.09,West,275,0.0,1.0,91,0.00,,BKN049,0.00,0.00,VWS V14.01,2013-07-04 06:51:00,
2013-07-04 02:55:00,77.2,74.4,30.09,West,275,0.0,1.0,91,0.00,,,0.00,0.00,VWS V14.01,2013-07-04 06:55:00,
2013-07-04 02:56:00,77.2,74.4,30.09,West,275,1.0,1.0,91,0.00,,BKN049,0.00,0.00,VWS V14.01,2013-07-04 06:56:00,
2013-07-04 03:00:00,77.2,74.7,30.09,West,275,0.0,1.0,92,0.00,,,0.00,0.00,VWS V14.01,2013-07-04 07:00:00,
2013-07-04 03:01:00,77.2,74.7,30.09,West,275,0.0,0.0,92,0.00,,BKN049,0.00,0.00,VWS V14.01,2013-07-04 07:01:00,
2013-07-04 03:05:00,77.2,74.7,30.10,West,275,0.0,0.0,92,0.00,,,0.00,0.00,VWS V14.01,2013-07-04 07:05:00,
2013-07-04 03:06:00,77.2,74.7,30.09,West,275,0.0,0.0,92,0.00,,BKN049,0.00,0.00,VWS V14.01,2013-07-04 07:06:00,
2013-07-04 03:10:00,77.2,74.7,30.09,West,275,0.0,0.0,92,0.00,,,0.00,0.00,VWS V14.01,2013-07-04 07:10:00,
2013-07-04 03:11:00,77.1,74.6,30.09,West,275,0.0,0.0,92,0.00,,BKN049,0.00,0.00,VWS V14.01,2013-07-04 07:11:00,
2013-07-04 03:15:00,77.1,74.6,30.09,West,274,1.0,2.0,92,0.00,,,0.00,0.00,VWS V14.01,2013-07-04 07:15:00,
2013-07-04 03:16:00,77.1,74.6,30.09,West,275,2.0,2.0,92,0.00,,BKN049,0.00,0.00,VWS V14.01,2013-07-04 07:16:00,
2013-07-04 03:20:00,77.2,74.7,30.09,West,275,0.0,2.0,92,0.00,,,0.00,0.00,VWS V14.01,2013-07-04 07:20:00,
2013-07-04 03:21:00,77.1,74.6,30.09,West,275,0.0,0.0,92,0.00,,BKN049,0.00,0.00,VWS V14.01,2013-07-04 07:21:00,
2013-07-04 03:25:00,77.1,74.6,30.09,West,275,0.0,0.0,92,0.00,,,0.00,0.00,VWS V14.01,2013-07-04 07:25:00,
2013-07-04 03:26:00,77.0,74.5,30.08,West,275,0.0,0.0,92,0.00,,BKN049,0.00,0.00,VWS V14.01,2013-07-04 07:26:00,
2013-07-04 03:30:00,76.9,74.4,30.08,West,275,1.0,2.0,92,0.00,,,0.00,0.00,VWS V14.01,2013-07-04 07:30:00,
2013-07-04 03:31:00,76.9,74.4,30.08,NNE,32,1.0,2.0,92,0.00,,BKN049,0.00,0.00,VWS V14.01,2013-07-04 07:31:00,
2013-07-04 03:35:00,76.9,74.4,30.08,NNE,32,0.0,0.0,92,0.00,,,0.00,0.00,VWS V14.01,2013-07-04 07:35:00,
2013-07-04 03:36:00,76.8,74.3,30.08,NNE,31,0.0,0.0,92,0.00,,BKN049,0.00,0.00,VWS V14.01,2013-07-04 07:36:00,
2013-07-04 03:40:00,76.9,74.4,30.08,NNE,32,0.0,1.0,92,0.00,,,0.00,0.00,VWS V14.01,2013-07-04 07:40:00,
2013-07-04 03:41:00,76.9,74.4,30.08,NNE,31,0.0,1.0,92,0.00,,BKN044,0.00,0.00,VWS V14.01,2013-07-04 07:41:00,
2013-07-04 03:45:00,76.9,74.4,30.08,NNE,32,0.0,0.0,92,0.00,,,0.00,0.00,VWS V14.01,2013-07-04 07:45:00,
2013-07-04 03:46:00,76.9,74.4,30.08,ENE,75,1.0,2.0,92,0.00,,BKN044,0.00,0.00,VWS V14.01,2013-07-04 07:46:00,
2013-07-04 03:50:00,76.9,74.4,30.08,ENE,73,0.0,2.0,92,0.00,,,0.00,0.00,VWS V14.01,2013-07-04 07:50:00,
2013-07-04 03:51:00,76.9,74.4,30.08,ESE,113,3.0,4.0,92,0.00,,BKN044,0.00,0.00,VWS V14.01,2013-07-04 07:51:00,
2013-07-04 03:55:00,77.1,74.6,30.08,East,87,5.0,5.0,92,0.00,,,0.00,0.00,VWS V14.01,2013-07-04 07:55:00,
2013-07-04 03:56:00,77.2,74.4,30.08,East,89,3.0,6.0,91,0.00,,BKN044,0.00,0.00,VWS V14.01,2013-07-04 07:56:00,
2013-07-04 04:00:00,77.4,74.6,30.08,ESE,117,1.0,5.0,91,0.00,,,0.00,0.00,VWS V14.01,2013-07-04 08:00:00,
2013-07-04 04:01:00,77.6,74.4,30.08,East,90,2.0,7.0,90,0.00,,BKN044,0.00,0.00,VWS V14.01,2013-07-04 08:01:00,
2013-07-04 04:05:00,77.9,74.7,30.08,East,85,3.0,6.0,90,0.00,,,0.00,0.00,VWS V14.01,2013-07-04 08:05:00,
2013-07-04 04:06:00,78.2,74.7,30.08,ENE,74,5.0,6.0,89,0.00,,BKN044,0.00,0.00,VWS V14.01,2013-07-04 08:06:00,
2013-07-04 04:10:00,78.4,74.6,30.08,East,93,3.0,5.0,88,0.00,,,0.00,0.00,VWS V14.01,2013-07-04 08:10:00,
2013-07-04 04:11:00,78.6,74.8,30.08,ENE,67,0.0,5.0,88,0.00,,BKN044,0.00,0.00,VWS V14.01,2013-07-04 08:11:00,
2013-07-04 04:15:00,78.8,74.6,30.08,SSE,156,3.0,6.0,87,0.00,,,0.00,0.00,VWS V14.01,2013-07-04 08:15:00,
2013-07-04 04:16:00,78.9,74.4,30.08,SE,128,3.0,7.0,86,0.00,,BKN044,0.00,0.00,VWS V14.01,2013-07-04 08:16:00,
2013-07-04 04:20:00,79.1,74.6,30.08,East,87,2.0,4.0,86,0.00,,,0.00,0.00,VWS V14.01,2013-07-04 08:20:00,
2013-07-04 04:21:00,79.2,74.7,30.08,SE,134,5.0,5.0,86,0.00,,BKN044,0.00,0.00,VWS V14.01,2013-07-04 08:21:00,
2013-07-04 04:25:00,79.3,74.4,30.08,ESE,110,1.0,5.0,85,0.00,,,0.00,0.00,VWS V14.01,2013-07-04 08:25:00,
2013-07-04 04:26:00,79.4,74.5,30.08,ESE,111,1.0,3.0,85,0.00,,BKN044,0.00,0.00,VWS V14.01,2013-07-04 08:26:00,
2013-07-04 04:30:00,79.5,74.6,30.08,ESE,115,2.0,5.0,85,0.00,,,0.00,0.00,VWS V14.01,2013-07-04 08:30:00,
2013-07-04 04:31:00,79.5,74.6,30.08,SE,136,1.0,5.0,85,0.00,,BKN044,0.00,0.00,VWS V14.01,2013-07-04 08:31:00,
2013-07-04 04:35:00,79.6,74.7,30.08,NE,48,4.0,5.0,85,0.00,,,0.00,0.00,VWS V14.01,2013-07-04 08:35:00,
2013-07-04 04:36:00,79.6,74.3,30.08,NE,38,3.0,6.0,84,0.00,,FEW025,0.00,0.00,VWS V14.01,2013-07-04 08:36:00,
2013-07-04 04:40:00,79.6,74.3,30.08,SSE,155,3.0,5.0,84,0.00,,,0.00,0.00,VWS V14.01,2013-07-04 08:40:00,
2013-07-04 04:41:00,79.6,74.0,30.08,SE,133,4.0,6.0,83,0.00,,FEW025,0.00,0.00,VWS V14.01,2013-07-04 08:41:00,
2013-07-04 04:45:00,79.7,74.1,30.08,ENE,67,0.0,3.0,83,0.00,,,0.00,0.00,VWS V14.01,2013-07-04 08:45:00,
2013-07-04 04:46:00,79.7,74.1,30.08,SE,134,2.0,3.0,83,0.00,,FEW025,0.00,0.00,VWS V14.01,2013-07-04 08:46:00,
2013-07-04 04:50:00,79.7,74.1,30.08,ESE,115,2.0,6.0,83,0.00,,,0.00,0.00,VWS V14.01,2013-07-04 08:50:00,
2013-07-04 04:51:00,79.7,73.7,30.08,ESE,119,2.0,9.0,82,0.00,,FEW025,0.00,0.00,VWS V14.01,2013-07-04 08:51:00,
2013-07-04 04:55:00,79.8,73.8,30.08,ESE,121,3.0,7.0,82,0.00,,,0.00,0.00,VWS V14.01,2013-07-04 08:55:00,
2013-07-04 04:56:00,79.8,73.8,30.08,ESE,116,2.0,10.0,82,0.00,,FEW025,0.00,0.00,VWS V14.01,2013-07-04 08:56:00,
2013-07-04 05:00:00,79.9,73.9,30.08,SE,130,4.0,9.0,82,0.00,,,0.00,0.00,VWS V14.01,2013-07-04 09:00:00,
2013-07-04 05:01:00,80.0,74.0,30.08,ESE,117,2.0,9.0,82,0.00,,FEW025,0.00,0.00,VWS V14.01,2013-07-04 09:01:00,
2013-07-04 05:05:00,80.0,74.0,30.08,SSE,150,2.0,7.0,82,0.00,,,0.00,0.00,VWS V14.01,2013-07-04 09:05:00,
2013-07-04 05:06:00,80.0,74.0,30.07,SE,131,2.0,4.0,82,0.00,,FEW025,0.00,0.00,VWS V14.01,2013-07-04 09:06:00,
2013-07-04 05:10:00,80.0,74.0,30.07,NE,35,3.0,8.0,82,0.00,,,0.00,0.00,VWS V14.01,2013-07-04 09:10:00,
2013-07-04 05:11:00,80.0,74.0,30.08,East,89,2.0,8.0,82,0.00,,FEW025,0.00,0.00,VWS V14.01,2013-07-04 09:11:00,
2013-07-04 05:15:00,80.0,74.0,30.07,ESE,110,1.0,5.0,82,0.00,,,0.00,0.00,VWS V14.01,2013-07-04 09:15:00,
2013-07-04 05:16:00,80.0,74.0,30.07,East,93,7.0,7.0,82,0.00,,FEW025,0.00,0.00,VWS V14.01,2013-07-04 09:16:00,
2013-07-04 05:20:00,80.0,74.0,30.08,East,89,6.0,6.0,82,0.00,,,0.00,0.00,VWS V14.01,2013-07-04 09:20:00,
2013-07-04 05:21:00,80.0,74.0,30.07,SE,138,4.0,7.0,82,0.00,,FEW025,0.00,0.00,VWS V14.01,2013-07-04 09:21:00,
2013-07-04 05:25:00,80.1,74.1,30.07,ENE,66,3.0,5.0,82,0.00,,,0.00,0.00,VWS V14.01,2013-07-04 09:25:00,
2013-07-04 05:26:00,80.0,74.0,30.08,North,360,8.0,8.0,82,0.00,,FEW025,0.00,0.00,VWS V14.01,2013-07-04 09:26:00,
2013-07-04 05:30:00,80.0,74.0,30.08,ESE,115,2.0,7.0,82,0.00,,,0.00,0.00,VWS V14.01,2013-07-04 09:30:00,
2013-07-04 05:31:00,80.0,74.4,30.08,East,95,3.0,7.0,83,0.00,,FEW025,0.00,0.00,VWS V14.01,2013-07-04 09:31:00,
2013-07-04 05:35:00,80.0,74.4,30.08,East,96,3.0,10.0,83,0.00,,,0.00,0.00,VWS V14.01,2013-07-04 09:35:00,
2013-07-04 05:36:00,80.0,74.4,30.07,East,97,1.0,9.0,83,0.00,,FEW025,0.00,0.00,VWS V14.01,2013-07-04 09:36:00,
2013-07-04 05:40:00,79.9,74.3,30.08,ESE,122,2.0,10.0,83,0.00,,,0.00,0.00,VWS V14.01,2013-07-04 09:40:00,
2013-07-04 05:41:00,79.9,74.3,30.08,SE,134,1.0,10.0,83,0.00,,CLR,0.00,0.00,VWS V14.01,2013-07-04 09:41:00,
2013-07-04 05:45:00,79.9,74.3,30.08,East,91,5.0,5.0,83,0.00,,,0.00,0.00,VWS V14.01,2013-07-04 09:45:00,
2013-07-04 05:46:00,79.8,74.2,30.08,ESE,117,1.0,6.0,83,0.00,,CLR,0.00,0.00,VWS V14.01,2013-07-04 09:46:00,
2013-07-04 05:50:00,79.8,74.2,30.08,SE,133,2.0,6.0,83,0.00,,,0.00,0.00,VWS V14.01,2013-07-04 09:50:00,
2013-07-04 05:51:00,79.8,74.2,30.08,East,95,7.0,7.0,83,0.00,,CLR,0.00,0.00,VWS V14.01,2013-07-04 09:51:00,
2013-07-04 05:55:00,79.8,73.8,30.08,East,84,3.0,7.0,82,0.00,,,0.00,0.00,VWS V14.01,2013-07-04 09:55:00,
2013-07-04 05:56:00,79.8,73.8,30.08,SE,134,4.0,6.0,82,0.00,,CLR,0.00,0.00,VWS V14.01,2013-07-04 09:56:00,
2013-07-04 06:00:00,79.8,73.8,30.08,ENE,63,1.0,5.0,82,0.00,,,0.00,0.00,VWS V14.01,2013-07-04 10:00:00,
2013-07-04 06:01:00,79.8,73.8,30.08,SE,132,5.0,6.0,82,0.00,,CLR,0.00,0.00,VWS V14.01,2013-07-04 10:01:00,
2013-07-04 06:05:00,79.8,73.8,30.08,East,83,8.0,8.0,82,0.00,,,0.00,0.00,VWS V14.01,2013-07-04 10:05:00,
2013-07-04 06:06:00,79.8,73.8,30.08,East,89,3.0,9.0,82,0.00,,CLR,0.00,0.00,VWS V14.01,2013-07-04 10:06:00,
2013-07-04 06:10:00,79.8,73.8,30.08,ESE,109,2.0,5.0,82,0.00,,,0.00,0.00,VWS V14.01,2013-07-04 10:10:00,
2013-07-04 06:11:00,79.9,73.9,30.08,East,90,2.0,7.0,82,0.00,,CLR,0.00,0.00,VWS V14.01,2013-07-04 10:11:00,
2013-07-04 06:15:00,79.9,74.3,30.08,East,83,6.0,11.0,83,0.00,,,0.00,0.00,VWS V14.01,2013-07-04 10:15:00,
2013-07-04 06:16:00,79.9,74.3,30.08,East,89,1.0,6.0,83,0.00,,CLR,0.00,0.00,VWS V14.01,2013-07-04 10:16:00,
2013-07-04 06:20:00,79.9,74.3,30.08,ESE,115,1.0,8.0,83,0.00,,,0.00,0.00,VWS V14.01,2013-07-04 10:20:00,
2013-07-04 06:21:00,80.0,74.4,30.09,NE,40,6.0,8.0,83,0.00,,CLR,0.00,0.00,VWS V14.01,2013-07-04 10:21:00,
2013-07-04 06:25:00,80.0,74.4,30.09,SE,132,5.0,8.0,83,0.00,,,0.00,0.00,VWS V14.01,2013-07-04 10:25:00,
2013-07-04 06:26:00,80.0,74.4,30.09,South,191,3.0,5.0,83,0.00,,CLR,0.00,0.00,VWS V14.01,2013-07-04 10:26:00,
2013-07-04 06:30:00,80.0,74.0,30.09,ESE,108,4.0,10.0,82,0.00,,,0.00,0.00,VWS V14.01,2013-07-04 10:30:00,
2013-07-04 06:31:00,80.1,74.1,30.09,ESE,112,2.0,5.0,82,0.00,,CLR,0.00,0.00,VWS V14.01,2013-07-04 10:31:00,
2013-07-04 06:35:00,80.0,74.0,30.09,ESE,113,2.0,9.0,82,0.00,,,0.00,5.00,VWS V14.01,2013-07-04 10:35:00,
2013-07-04 06:36:00,80.1,74.1,30.09,SSE,166,2.0,5.0,82,0.00,,CLR,0.00,7.00,VWS V14.01,2013-07-04 10:36:00,
2013-07-04 06:40:00,80.1,74.1,30.09,ESE,108,4.0,11.0,82,0.00,,,0.00,7.00,VWS V14.01,2013-07-04 10:40:00,
2013-07-04 06:41:00,80.1,74.1,30.09,SE,132,2.0,7.0,82,0.00,,CLR,0.00,9.00,VWS V14.01,2013-07-04 10:41:00,
2013-07-04 06:45:00,80.1,74.1,30.09,East,84,2.0,6.0,82,0.00,,,0.00,11.00,VWS V14.01,2013-07-04 10:45:00,
2013-07-04 06:46:00,80.1,74.1,30.09,SE,132,4.0,7.0,82,0.00,,CLR,0.00,12.00,VWS V14.01,2013-07-04 10:46:00,
2013-07-04 06:50:00,80.1,74.1,30.09,SE,132,7.0,8.0,82,0.00,,,0.00,14.00,VWS V14.01,2013-07-04 10:50:00,
2013-07-04 06:51:00,80.2,74.2,30.09,SSE,163,3.0,8.0,82,0.00,,CLR,0.00,16.00,VWS V14.01,2013-07-04 10:51:00,
2013-07-04 06:55:00,80.2,74.2,30.09,SE,132,1.0,6.0,82,0.00,,,0.00,21.00,VWS V14.01,2013-07-04 10:55:00,
2013-07-04 06:56:00,80.3,74.3,30.09,SE,127,5.0,6.0,82,0.00,,CLR,0.00,25.00,VWS V14.01,2013-07-04 10:56:00,
2013-07-04 07:00:00,80.3,74.3,30.09,SE,126,5.0,7.0,82,0.00,,,0.00,25.00,VWS V14.01,2013-07-04 11:00:00,
2013-07-04 07:01:00,80.3,74.3,30.09,South,171,2.0,8.0,82,0.00,,CLR,0.00,23.00,VWS V14.01,2013-07-04 11:01:00,
2013-07-04 07:05:00,80.3,74.3,30.09,East,88,2.0,8.0,82,0.00,,,0.00,32.00,VWS V14.01,2013-07-04 11:05:00,
2013-07-04 07:06:00,80.3,74.3,30.09,East,95,1.0,5.0,82,0.00,,CLR,0.00,26.00,VWS V14.01,2013-07-04 11:06:00,
2013-07-04 07:10:00,80.3,74.3,30.09,SSE,157,5.0,5.0,82,0.00,,,0.00,32.00,VWS V14.01,2013-07-04 11:10:00,
2013-07-04 07:11:00,80.3,74.3,30.09,SE,128,3.0,7.0,82,0.00,,CLR,0.00,37.00,VWS V14.01,2013-07-04 11:11:00,
2013-07-04 07:15:00,80.4,74.4,30.09,SE,136,2.0,11.0,82,0.00,,,0.00,37.00,VWS V14.01,2013-07-04 11:15:00,
2013-07-04 07:16:00,80.4,74.4,30.10,SE,132,5.0,7.0,82,0.00,,CLR,0.00,39.00,VWS V14.01,2013-07-04 11:16:00,
2013-07-04 07:20:00,80.5,74.5,30.10,East,89,3.0,7.0,82,0.00,,,0.00,53.00,VWS V14.01,2013-07-04 11:20:00,
2013-07-04 07:21:00,80.6,74.2,30.10,SSE,157,3.0,8.0,81,0.00,,CLR,0.00,54.00,VWS V14.01,2013-07-04 11:21:00,
2013-07-04 07:25:00,80.6,74.2,30.10,SE,128,4.0,7.0,81,0.00,,,0.00,62.00,VWS V14.01,2013-07-04 11:25:00,
2013-07-04 07:26:00,80.7,74.3,30.10,SE,127,4.0,7.0,81,0.00,,CLR,0.00,49.00,VWS V14.01,2013-07-04 11:26:00,
2013-07-04 07:30:00,80.8,74.4,30.10,ESE,115,3.0,8.0,81,0.00,,,0.00,39.00,VWS V14.01,2013-07-04 11:30:00,
2013-07-04 07:31:00,80.8,74.4,30.10,ENE,66,3.0,5.0,81,0.00,,CLR,0.00,77.00,VWS V14.01,2013-07-04 11:31:00,
2013-07-04 07:35:00,80.9,74.9,30.10,SE,129,5.0,9.0,82,0.00,,,0.00,88.00,VWS V14.01,2013-07-04 11:35:00,
2013-07-04 07:36:00,81.0,74.6,30.10,SE,138,4.0,11.0,81,0.00,,CLR,0.00,98.00,VWS V14.01,2013-07-04 11:36:00,
2013-07-04 07:40:00,81.1,74.7,30.10,SE,136,11.0,11.0,81,0.00,,,0.00,102.00,VWS V14.01,2013-07-04 11:40:00,
2013-07-04 07:41:00,81.2,74.8,30.10,SE,132,4.0,11.0,81,0.00,,SCT025,0.00,65.00,VWS V14.01,2013-07-04 11:41:00,
2013-07-04 07:45:00,81.3,74.9,30.10,SE,127,3.0,9.0,81,0.00,,,0.00,100.00,VWS V14.01,2013-07-04 11:45:00,
2013-07-04 07:46:00,81.4,75.0,30.10,ENE,74,3.0,11.0,81,0.00,,SCT025,0.00,132.00,VWS V14.01,2013-07-04 11:46:00,
2013-07-04 07:50:00,81.5,74.7,30.10,SSE,156,3.0,10.0,80,0.00,,,0.00,134.00,VWS V14.01,2013-07-04 11:50:00,
2013-07-04 07:51:00,81.6,74.8,30.10,ESE,117,3.0,8.0,80,0.00,,SCT025,0.00,155.00,VWS V14.01,2013-07-04 11:51:00,
2013-07-04 07:55:00,81.8,75.0,30.11,SE,134,2.0,7.0,80,0.00,,,0.00,97.00,VWS V14.01,2013-07-04 11:55:00,
2013-07-04 07:56:00,81.8,75.0,30.11,SE,129,7.0,7.0,80,0.00,,SCT025,0.00,54.00,VWS V14.01,2013-07-04 11:56:00,
2013-07-04 08:00:00,81.9,75.1,30.11,SE,137,5.0,7.0,80,0.00,,,0.00,60.00,VWS V14.01,2013-07-04 12:00:00,
2013-07-04 08:01:00,81.9,75.1,30.11,SSE,153,3.0,7.0,80,0.00,,SCT025,0.00,51.00,VWS V14.01,2013-07-04 12:01:00,
2013-07-04 08:05:00,81.9,75.1,30.11,ESE,115,3.0,8.0,80,0.00,,,0.00,60.00,VWS V14.01,2013-07-04 12:05:00,
2013-07-04 08:06:00,81.9,75.1,30.11,East,84,3.0,6.0,80,0.00,,SCT025,0.00,51.00,VWS V14.01,2013-07-04 12:06:00,
2013-07-04 08:10:00,81.8,75.4,30.11,East,91,5.0,10.0,81,0.00,,,0.00,81.00,VWS V14.01,2013-07-04 12:10:00,
2013-07-04 08:11:00,81.8,75.4,30.11,ESE,119,3.0,8.0,81,0.00,,SCT025,0.00,72.00,VWS V14.01,2013-07-04 12:11:00,
2013-07-04 08:15:00,81.8,75.4,30.11,ENE,66,4.0,8.0,81,0.00,,,0.00,81.00,VWS V14.01,2013-07-04 12:15:00,
2013-07-04 08:16:00,81.8,75.4,30.11,ESE,120,1.0,9.0,81,0.00,,SCT025,0.00,91.00,VWS V14.01,2013-07-04 12:16:00,
2013-07-04 08:20:00,81.8,75.4,30.11,SSE,157,2.0,6.0,81,0.00,,,0.00,97.00,VWS V14.01,2013-07-04 12:20:00,
2013-07-04 08:21:00,81.8,75.8,30.11,SE,128,4.0,7.0,82,0.00,,SCT025,0.00,100.00,VWS V14.01,2013-07-04 12:21:00,
2013-07-04 08:25:00,81.9,75.9,30.11,SSE,168,6.0,11.0,82,0.00,,,0.00,153.00,VWS V14.01,2013-07-04 12:25:00,
2013-07-04 08:26:00,81.9,75.5,30.11,ESE,117,5.0,13.0,81,0.00,,SCT025,0.00,105.00,VWS V14.01,2013-07-04 12:26:00,
2013-07-04 08:30:00,82.0,75.6,30.12,SSE,149,6.0,10.0,81,0.00,,,0.00,142.00,VWS V14.01,2013-07-04 12:30:00,
2013-07-04 08:31:00,82.0,75.6,30.12,SE,130,5.0,14.0,81,0.00,,SCT025,0.00,188.00,VWS V14.01,2013-07-04 12:31:00,
2013-07-04 08:35:00,81.9,75.1,30.12,SE,131,5.0,9.0,80,0.00,,,0.00,97.00,VWS V14.01,2013-07-04 12:35:00,
2013-07-04 08:36:00,81.9,75.1,30.12,SE,129,3.0,11.0,80,0.00,,SCT025,0.00,72.00,VWS V14.01,2013-07-04 12:36:00,
2013-07-04 08:40:00,81.9,75.5,30.12,NE,49,4.0,8.0,81,0.00,,,0.00,102.00,VWS V14.01,2013-07-04 12:40:00,
2013-07-04 08:41:00,81.8,75.4,30.12,SSE,158,2.0,10.0,81,0.00,,SCT025,0.00,95.00,VWS V14.01,2013-07-04 12:41:00,
2013-07-04 08:45:00,81.8,75.4,30.12,SSE,150,2.0,5.0,81,0.00,,,0.00,90.00,VWS V14.01,2013-07-04 12:45:00,
2013-07-04 08:46:00,81.8,75.4,30.12,SSW,192,5.0,10.0,81,0.00,,SCT025,0.00,107.00,VWS V14.01,2013-07-04 12:46:00,
2013-07-04 08:50:00,81.9,75.1,30.12,NE,51,3.0,9.0,80,0.00,,,0.00,120.00,VWS V14.01,2013-07-04 12:50:00,
2013-07-04 08:51:00,81.9,75.1,30.12,NE,49,3.0,8.0,80,0.00,,SCT025,0.00,163.00,VWS V14.01,2013-07-04 12:51:00,
2013-07-04 08:55:00,82.0,75.2,30.13,NE,43,3.0,10.0,80,0.00,,,0.00,193.00,VWS V14.01,2013-07-04 12:55:00,
2013-07-04 08:56:00,82.1,74.9,30.13,SSE,150,4.0,11.0,79,0.00,,SCT025,0.00,308.00,VWS V14.01,2013-07-04 12:56:00,
2013-07-04 09:00:00,82.3,75.1,30.13,ESE,119,4.0,7.0,79,0.00,,,0.00,211.00,VWS V14.01,2013-07-04 13:00:00,
2013-07-04 09:01:00,82.5,74.9,30.13,SE,125,2.0,9.0,78,0.00,,SCT025,0.00,113.00,VWS V14.01,2013-07-04 13:01:00,
2013-07-04 09:05:00,82.6,75.1,30.13,SE,130,5.0,11.0,78,0.00,,,0.00,181.00,VWS V14.01,2013-07-04 13:05:00,
2013-07-04 09:06:00,82.8,75.6,30.13,ESE,118,5.0,8.0,79,0.00,,SCT025,0.00,105.00,VWS V14.01,2013-07-04 13:06:00,
2013-07-04 09:10:00,82.9,75.3,30.13,ESE,120,4.0,13.0,78,0.00,,,0.00,111.00,VWS V14.01,2013-07-04 13:10:00,
2013-07-04 09:11:00,83.0,75.4,30.13,ESE,111,4.0,15.0,78,0.00,,CLR,0.00,373.00,VWS V14.01,2013-07-04 13:11:00,
2013-07-04 09:15:00,83.2,75.6,30.13,ESE,116,5.0,9.0,78,0.00,,,0.00,220.00,VWS V14.01,2013-07-04 13:15:00,
2013-07-04 09:16:00,83.3,75.7,30.13,ESE,119,4.0,9.0,78,0.00,,CLR,0.00,309.00,VWS V14.01,2013-07-04 13:16:00,
2013-07-04 09:20:00,83.6,75.6,30.13,East,83,5.0,17.0,77,0.00,,,0.00,461.00,VWS V14.01,2013-07-04 13:20:00,
2013-07-04 09:21:00,83.7,75.7,30.13,SE,146,3.0,13.0,77,0.00,,CLR,0.00,369.00,VWS V14.01,2013-07-04 13:21:00,
2013-07-04 09:25:00,83.9,75.5,30.13,East,88,6.0,9.0,76,0.00,,,0.00,478.00,VWS V14.01,2013-07-04 13:25:00,
2013-07-04 09:26:00,84.1,75.3,30.13,SE,132,5.0,15.0,75,0.00,,CLR,0.00,533.00,VWS V14.01,2013-07-04 13:26:00,
2013-07-04 09:30:00,84.3,75.9,30.13,ESE,121,14.0,14.0,76,0.00,,,0.00,508.00,VWS V14.01,2013-07-04 13:30:00,
2013-07-04 09:31:00,84.4,76.0,30.13,SE,126,6.0,14.0,76,0.00,,CLR,0.00,592.00,VWS V14.01,2013-07-04 13:31:00,
2013-07-04 09:35:00,84.4,76.0,30.13,SE,146,6.0,14.0,76,0.00,,,0.00,174.00,VWS V14.01,2013-07-04 13:35:00,
2013-07-04 09:36:00,84.3,75.9,30.13,East,94,10.0,13.0,76,0.00,,CLR,0.00,174.00,VWS V14.01,2013-07-04 13:36:00,
2013-07-04 09:40:00,84.3,75.9,30.13,NE,50,5.0,11.0,76,0.00,,,0.00,186.00,VWS V14.01,2013-07-04 13:40:00,
2013-07-04 09:41:00,84.2,75.4,30.13,East,85,8.0,20.0,75,0.00,,CLR,0.00,176.00,VWS V14.01,2013-07-04 13:41:00,
2013-07-04 09:45:00,84.4,76.0,30.13,NE,34,5.0,11.0,76,0.00,,,0.00,547.00,VWS V14.01,2013-07-04 13:45:00,
2013-07-04 09:46:00,84.6,75.8,30.13,South,177,6.0,10.0,75,0.00,,CLR,0.00,647.00,VWS V14.01,2013-07-04 13:46:00,
2013-07-04 09:50:00,85.0,76.2,30.13,SSE,157,3.0,11.0,75,0.00,,,0.00,635.00,VWS V14.01,2013-07-04 13:50:00,
2013-07-04 09:51:00,85.1,75.9,30.13,ESE,117,3.0,14.0,74,0.00,,CLR,0.00,670.00,VWS V14.01,2013-07-04 13:51:00,
2013-07-04 09:55:00,85.4,76.2,30.13,North,360,6.0,14.0,74,0.00,,,0.00,278.00,VWS V14.01,2013-07-04 13:55:00,
2013-07-04 09:56:00,85.4,75.8,30.13,SSE,157,6.0,12.0,73,0.00,,CLR,0.00,696.00,VWS V14.01,2013-07-04 13:56:00,
2013-07-04 10:00:00,85.6,76.4,30.14,North,360,4.0,9.0,74,0.00,,,0.00,696.00,VWS V14.01,2013-07-04 14:00:00,
2013-07-04 10:01:00,85.5,75.9,30.14,ENE,69,5.0,11.0,73,0.00,,CLR,0.00,179.00,VWS V14.01,2013-07-04 14:01:00,
2013-07-04 10:05:00,85.4,76.2,30.14,SSE,153,15.0,15.0,74,0.00,,,0.00,698.00,VWS V14.01,2013-07-04 14:05:00,
2013-07-04 10:06:00,85.5,76.3,30.14,SE,131,5.0,16.0,74,0.00,,CLR,0.00,693.00,VWS V14.01,2013-07-04 14:06:00,
2013-07-04 10:10:00,85.6,76.4,30.14,ENE,73,3.0,16.0,74,0.00,,,0.00,671.00,VWS V14.01,2013-07-04 14:10:00,
2013-07-04 10:11:00,85.7,76.5,30.14,SE,128,8.0,15.0,74,0.00,,CLR,0.00,671.00,VWS V14.01,2013-07-04 14:11:00,
2013-07-04 10:15:00,85.9,76.7,30.14,ESE,119,3.0,13.0,74,0.00,,,0.00,221.00,VWS V14.01,2013-07-04 14:15:00,
2013-07-04 10:16:00,85.9,75.8,30.14,South,182,11.0,12.0,72,0.00,,CLR,0.00,735.00,VWS V14.01,2013-07-04 14:16:00,
2013-07-04 10:20:00,85.8,75.7,30.14,SE,132,4.0,12.0,72,0.00,,,0.00,373.00,VWS V14.01,2013-07-04 14:20:00,
2013-07-04 10:21:00,85.8,75.7,30.14,SE,130,4.0,13.0,72,0.00,,CLR,0.00,708.00,VWS V14.01,2013-07-04 14:21:00,
2013-07-04 10:25:00,86.0,75.9,30.14,SE,131,3.0,10.0,72,0.00,,,0.00,693.00,VWS V14.01,2013-07-04 14:25:00,
2013-07-04 10:26:00,86.4,76.3,30.14,SE,134,5.0,8.0,72,0.00,,CLR,0.00,705.00,VWS V14.01,2013-07-04 14:26:00,
2013-07-04 10:30:00,86.6,76.1,30.14,ESE,114,10.0,12.0,71,0.00,,,0.00,710.00,VWS V14.01,2013-07-04 14:30:00,
2013-07-04 10:31:00,86.7,76.2,30.14,ENE,66,7.0,12.0,71,0.00,,CLR,0.00,710.00,VWS V14.01,2013-07-04 14:31:00,
2013-07-04 10:35:00,86.9,75.9,30.14,SE,134,3.0,15.0,70,0.00,,,0.00,729.00,VWS V14.01,2013-07-04 14:35:00,
2013-07-04 10:36:00,87.1,76.6,30.14,ENE,68,4.0,8.0,71,0.00,,SCT026,0.00,780.00,VWS V14.01,2013-07-04 14:36:00,
2013-07-04 10:40:00,87.5,77.4,30.14,East,94,5.0,9.0,72,0.00,,,0.00,837.00,VWS V14.01,2013-07-04 14:40:00,
2013-07-04 10:41:00,87.7,75.8,30.14,East,84,8.0,15.0,68,0.00,,SCT026,0.00,837.00,VWS V14.01,2013-07-04 14:41:00,
2013-07-04 10:45:00,87.8,75.9,30.14,ESE,109,8.0,14.0,68,0.00,,,0.00,800.00,VWS V14.01,2013-07-04 14:45:00,
2013-07-04 10:46:00,87.7,75.8,30.14,SE,126,11.0,16.0,68,0.00,,SCT026,0.00,816.00,VWS V14.01,2013-07-04 14:46:00,
2013-07-04 10:50:00,87.4,76.0,30.14,SE,137,7.0,12.0,69,0.00,,,0.00,821.00,VWS V14.01,2013-07-04 14:50:00,
2013-07-04 10:51:00,87.2,76.2,30.14,ENE,65,10.0,13.0,70,0.00,,SCT026,0.00,893.00,VWS V14.01,2013-07-04 14:51:00,
2013-07-04 10:55:00,87.3,76.3,30.14,ESE,115,8.0,13.0,70,0.00,,,0.00,831.00,VWS V14.01,2013-07-04 14:55:00,
2013-07-04 10:56:00,87.4,76.4,30.14,ESE,109,4.0,9.0,70,0.00,,SCT026,0.00,803.00,VWS V14.01,2013-07-04 14:56:00,
2013-07-04 11:00:00,87.7,76.7,30.14,SSE,155,6.0,9.0,70,0.00,,,0.00,833.00,VWS V14.01,2013-07-04 15:00:00,
2013-07-04 11:01:00,87.6,76.2,30.14,ESE,113,8.0,13.0,69,0.00,,SCT026,0.00,958.00,VWS V14.01,2013-07-04 15:01:00,
2013-07-04 11:05:00,87.5,76.1,30.15,SSE,147,8.0,15.0,69,0.00,,,0.00,408.00,VWS V14.01,2013-07-04 15:05:00,
2013-07-04 11:06:00,87.4,76.0,30.15,SSE,154,8.0,16.0,69,0.00,,SCT026,0.00,958.00,VWS V14.01,2013-07-04 15:06:00,
2013-07-04 11:10:00,87.4,76.0,30.14,NNE,33,3.0,12.0,69,0.00,,,0.00,937.00,VWS V14.01,2013-07-04 15:10:00,
2013-07-04 11:11:00,87.2,76.7,30.14,SE,128,7.0,13.0,71,0.00,,SCT026,0.00,937.00,VWS V14.01,2013-07-04 15:11:00,
2013-07-04 11:15:00,87.4,77.3,30.14,East,96,7.0,10.0,72,0.00,,,0.00,944.00,VWS V14.01,2013-07-04 15:15:00,
2013-07-04 11:16:00,87.2,76.2,30.14,East,90,5.0,9.0,70,0.00,,SCT026,0.00,353.00,VWS V14.01,2013-07-04 15:16:00,
2013-07-04 11:20:00,87.0,76.9,30.14,SSE,149,5.0,9.0,72,0.00,,,0.00,353.00,VWS V14.01,2013-07-04 15:20:00,
2013-07-04 11:21:00,87.1,77.4,30.14,SE,130,3.0,9.0,73,0.00,,SCT026,0.00,875.00,VWS V14.01,2013-07-04 15:21:00,
2013-07-04 11:25:00,87.2,77.1,30.14,SSE,159,4.0,8.0,72,0.00,,,0.00,427.00,VWS V14.01,2013-07-04 15:25:00,
2013-07-04 11:26:00,87.4,76.8,30.14,North,360,5.0,12.0,71,0.00,,SCT026,0.00,427.00,VWS V14.01,2013-07-04 15:26:00,
2013-07-04 11:30:00,87.2,75.8,30.14,NNE,16,4.0,12.0,69,0.00,,,0.00,301.00,VWS V14.01,2013-07-04 15:30:00,
2013-07-04 11:31:00,86.9,75.9,30.14,NE,51,3.0,9.0,70,0.00,,SCT026,0.00,325.00,VWS V14.01,2013-07-04 15:31:00,
2013-07-04 11:35:00,86.6,76.1,30.14,ESE,115,8.0,12.0,71,0.00,,,0.00,353.00,VWS V14.01,2013-07-04 15:35:00,
2013-07-04 11:36:00,86.6,76.1,30.14,South,173,10.0,15.0,71,0.00,,SCT026,0.00,353.00,VWS V14.01,2013-07-04 15:36:00,
2013-07-04 11:40:00,86.3,76.2,30.14,ESE,111,3.0,15.0,72,0.00,,,0.00,171.00,VWS V14.01,2013-07-04 15:40:00,
2013-07-04 11:41:00,86.1,76.0,30.14,ESE,123,9.0,12.0,72,0.00,,FEW028,0.00,176.00,VWS V14.01,2013-07-04 15:41:00,
2013-07-04 11:45:00,85.6,76.0,30.14,ESE,115,5.0,14.0,73,0.01,,,0.01,169.00,VWS V14.01,2013-07-04 15:45:00,
2013-07-04 11:46:00,85.2,77.2,30.15,South,183,8.0,14.0,77,0.02,,FEW028,0.02,232.00,VWS V14.01,2013-07-04 15:46:00,
2013-07-04 11:50:00,84.0,77.2,30.15,South,184,7.0,10.0,80,0.03,,,0.03,352.00,VWS V14.01,2013-07-04 15:50:00,
2013-07-04 11:51:00,83.3,77.2,30.15,SSE,158,5.0,9.0,82,0.03,,BKN036,0.03,352.00,VWS V14.01,2013-07-04 15:51:00,
2013-07-04 11:55:00,82.6,76.9,30.14,SSE,158,4.0,8.0,83,0.03,,,0.03,320.00,VWS V14.01,2013-07-04 15:55:00,
2013-07-04 11:56:00,82.5,77.2,30.14,SE,134,5.0,8.0,84,0.03,,BKN036,0.03,311.00,VWS V14.01,2013-07-04 15:56:00,
2013-07-04 12:00:00,82.5,77.2,30.14,South,180,5.0,10.0,84,0.03,,,0.03,376.00,VWS V14.01,2013-07-04 16:00:00,
2013-07-04 12:01:00,82.8,78.2,30.14,ENE,67,2.0,10.0,86,0.03,,BKN036,0.03,288.00,VWS V14.01,2013-07-04 16:01:00,
2013-07-04 12:05:00,83.2,77.9,30.14,SSE,161,4.0,9.0,84,0.03,,,0.03,253.00,VWS V14.01,2013-07-04 16:05:00,
2013-07-04 12:06:00,83.5,77.8,30.14,SSE,149,7.0,12.0,83,0.03,,BKN036,0.03,323.00,VWS V14.01,2013-07-04 16:06:00,
2013-07-04 12:10:00,84.1,77.6,30.14,SE,126,10.0,15.0,81,0.03,,,0.03,1039.00,VWS V14.01,2013-07-04 16:10:00,
2013-07-04 12:11:00,84.4,77.2,30.14,South,170,7.0,15.0,79,0.03,,BKN036,0.03,1076.00,VWS V14.01,2013-07-04 16:11:00,
2013-07-04 12:15:00,84.8,76.4,30.14,East,83,5.0,11.0,76,0.03,,,0.03,308.00,VWS V14.01,2013-07-04 16:15:00,
2013-07-04 12:16:00,84.8,76.4,30.14,SE,130,9.0,12.0,76,0.03,,BKN036,0.03,381.00,VWS V14.01,2013-07-04 16:16:00,
2013-07-04 12:20:00,84.8,76.4,30.14,SE,132,6.0,18.0,76,0.03,,,0.03,357.00,VWS V14.01,2013-07-04 16:20:00,
2013-07-04 12:21:00,84.7,76.3,30.14,ENE,65,5.0,13.0,76,0.03,,BKN036,0.03,489.00,VWS V14.01,2013-07-04 16:21:00,
2013-07-04 12:25:00,85.2,76.8,30.14,ESE,115,7.0,13.0,76,0.03,,,0.03,1078.00,VWS V14.01,2013-07-04 16:25:00,
2013-07-04 12:26:00,85.5,77.1,30.14,ENE,69,10.0,16.0,76,0.03,,BKN036,0.03,1078.00,VWS V14.01,2013-07-04 16:26:00,
2013-07-04 12:30:00,86.3,76.6,30.14,South,175,4.0,12.0,73,0.03,,BKN036,0.03,1042.00,VWS V14.01,2013-07-04 16:30:00,
2013-07-04 12:35:00,86.6,76.1,30.14,East,90,9.0,16.0,71,0.03,,BKN036,0.03,1169.00,VWS V14.01,2013-07-04 16:35:00,
2013-07-04 12:40:00,87.0,76.9,30.14,SE,131,7.0,14.0,72,0.03,,-RA,0.03,1183.00,VWS V14.01,2013-07-04 16:40:00,
2013-07-04 12:45:00,87.6,77.0,30.14,SE,142,12.0,12.0,71,0.02,,-RA,0.03,1109.00,VWS V14.01,2013-07-04 16:45:00,
2013-07-04 12:50:00,87.7,76.3,30.14,SE,144,9.0,13.0,69,0.00,,BKN038,0.03,1088.00,VWS V14.01,2013-07-04 16:50:00,
2013-07-04 12:55:00,87.5,76.5,30.14,SE,132,5.0,11.0,70,0.00,,BKN038,0.03,1088.00,VWS V14.01,2013-07-04 16:55:00,
2013-07-04 13:00:00,87.9,76.5,30.14,East,94,5.0,8.0,69,0.00,,BKN038,0.03,1174.00,VWS V14.01,2013-07-04 17:00:00,
2013-07-04 13:05:00,87.7,76.7,30.14,ESE,112,4.0,13.0,70,0.00,,BKN038,0.03,1201.00,VWS V14.01,2013-07-04 17:05:00,
2013-07-04 13:10:00,88.0,77.0,30.14,East,88,2.0,7.0,70,0.00,,BKN038,0.03,1056.00,VWS V14.01,2013-07-04 17:10:00,
2013-07-04 13:15:00,88.6,76.2,30.14,East,91,13.0,13.0,67,0.00,,BKN038,0.03,225.00,VWS V14.01,2013-07-04 17:15:00,
2013-07-04 13:20:00,88.2,75.4,30.14,SE,146,7.0,10.0,66,0.00,,BKN038,0.03,1081.00,VWS V14.01,2013-07-04 17:20:00,
2013-07-04 13:25:00,88.1,75.3,30.14,ENE,69,4.0,14.0,66,0.00,,BKN038,0.03,1088.00,VWS V14.01,2013-07-04 17:25:00,
2013-07-04 13:30:00,87.8,75.5,30.13,SE,136,4.0,14.0,67,0.00,,BKN038,0.03,272.00,VWS V14.01,2013-07-04 17:30:00,
2013-07-04 13:35:00,88.1,74.9,30.13,North,360,8.0,8.0,65,0.00,,BKN038,0.03,1174.00,VWS V14.01,2013-07-04 17:35:00,
2013-07-04 13:40:00,88.4,74.7,30.13,South,186,5.0,15.0,64,0.00,,SCT037,0.03,1137.00,VWS V14.01,2013-07-04 17:40:00,
2013-07-04 13:45:00,88.6,76.2,30.13,SE,129,10.0,10.0,67,0.00,,SCT037,0.03,1195.00,VWS V14.01,2013-07-04 17:45:00,
2013-07-04 13:50:00,88.3,75.5,30.13,East,96,13.0,13.0,66,0.00,,SCT037,0.03,1086.00,VWS V14.01,2013-07-04 17:50:00,
2013-07-04 13:55:00,88.3,74.6,30.13,SSE,151,13.0,14.0,64,0.00,,SCT037,0.03,1100.00,VWS V14.01,2013-07-04 17:55:00,
2013-07-04 14:00:00,88.8,75.1,30.13,SE,127,6.0,16.0,64,0.00,,SCT037,0.03,686.00,VWS V14.01,2013-07-04 18:00:00,
2013-07-04 14:05:00,89.5,76.7,30.12,North,360,10.0,10.0,66,0.00,,SCT037,0.03,1167.00,VWS V14.01,2013-07-04 18:05:00,
2013-07-04 14:10:00,89.0,75.7,30.12,SE,132,7.0,13.0,65,0.00,,SCT037,0.03,288.00,VWS V14.01,2013-07-04 18:10:00,
2013-07-04 14:15:00,88.1,75.3,30.12,ENE,67,4.0,10.0,66,0.00,,SCT037,0.03,378.00,VWS V14.01,2013-07-04 18:15:00,
2013-07-04 14:20:00,88.1,74.9,30.12,NE,41,3.0,12.0,65,0.00,,SCT037,0.03,1079.00,VWS V14.01,2013-07-04 18:20:00,
2013-07-04 14:25:00,88.9,76.1,30.12,SSE,159,7.0,10.0,66,0.00,,SCT037,0.03,1120.00,VWS V14.01,2013-07-04 18:25:00,
2013-07-04 14:30:00,88.5,75.7,30.12,SE,133,9.0,11.0,66,0.00,,SCT037,0.03,1002.00,VWS V14.01,2013-07-04 18:30:00,
2013-07-04 14:35:00,88.7,75.9,30.11,SE,134,6.0,12.0,66,0.00,,FEW032,0.03,814.00,VWS V14.01,2013-07-04 18:35:00,
2013-07-04 14:40:00,88.7,75.9,30.11,SE,130,4.0,13.0,66,0.00,,FEW032,0.03,1067.00,VWS V14.01,2013-07-04 18:40:00,
2013-07-04 14:45:00,88.5,76.2,30.11,NNE,19,3.0,9.0,67,0.00,,FEW032,0.03,265.00,VWS V14.01,2013-07-04 18:45:00,
2013-07-04 14:50:00,88.1,76.7,30.11,ESE,115,12.0,21.0,69,0.00,,FEW032,0.03,385.00,VWS V14.01,2013-07-04 18:50:00,
2013-07-04 14:55:00,88.2,75.9,30.11,South,174,12.0,15.0,67,0.00,,FEW032,0.03,744.00,VWS V14.01,2013-07-04 18:55:00,
2013-07-04 15:00:00,88.4,76.9,30.11,East,92,5.0,13.0,69,0.00,,FEW032,0.03,1099.00,VWS V14.01,2013-07-04 19:00:00,
2013-07-04 15:05:00,88.4,76.9,30.11,ENE,73,5.0,14.0,69,0.00,,FEW032,0.03,1099.00,VWS V14.01,2013-07-04 19:05:00,
2013-07-04 15:10:00,87.8,76.4,30.10,East,92,7.0,12.0,69,0.00,,FEW032,0.03,1120.00,VWS V14.01,2013-07-04 19:10:00,
2013-07-04 15:15:00,88.0,76.6,30.10,South,186,4.0,13.0,69,0.00,,FEW032,0.03,1125.00,VWS V14.01,2013-07-04 19:15:00,
2013-07-04 15:20:00,88.2,76.3,30.10,ENE,72,5.0,10.0,68,0.00,,FEW032,0.03,232.00,VWS V14.01,2013-07-04 19:20:00,
2013-07-04 15:25:00,88.3,76.8,30.10,SSE,165,7.0,14.0,69,0.00,,FEW032,0.03,1109.00,VWS V14.01,2013-07-04 19:25:00,
2013-07-04 15:30:00,88.1,75.8,30.10,ESE,115,3.0,11.0,67,0.00,,FEW032,0.03,190.00,VWS V14.01,2013-07-04 19:30:00,
2013-07-04 15:35:00,87.2,75.4,30.10,ENE,72,9.0,13.0,68,0.00,,BKN034,0.03,121.00,VWS V14.01,2013-07-04 19:35:00,
2013-07-04 15:40:00,86.3,75.4,30.10,South,175,7.0,15.0,70,0.00,,BKN034,0.03,125.00,VWS V14.01,2013-07-04 19:40:00,
2013-07-04 15:45:00,85.8,74.9,30.10,ENE,74,7.0,11.0,70,0.00,,BKN034,0.03,135.00,VWS V14.01,2013-07-04 19:45:00,
2013-07-04 15:50:00,85.6,75.1,30.10,NE,44,2.0,11.0,71,0.00,,BKN041,0.03,142.00,VWS V14.01,2013-07-04 19:50:00,
2013-07-04 15:55:00,85.4,75.8,30.11,SE,131,1.0,10.0,73,0.00,,BKN041,0.03,171.00,VWS V14.01,2013-07-04 19:55:00,
2013-07-04 16:00:00,85.4,76.2,30.10,East,89,5.0,12.0,74,0.00,,BKN041,0.03,295.00,VWS V14.01,2013-07-04 20:00:00,
2013-07-04 16:05:00,85.6,76.0,30.10,North,360,8.0,11.0,73,0.00,,BKN041,0.03,262.00,VWS V14.01,2013-07-04 20:05:00,
2013-07-04 16:10:00,85.8,76.6,30.10,SSE,157,4.0,13.0,74,0.00,,BKN041,0.03,355.00,VWS V14.01,2013-07-04 20:10:00,
2013-07-04 16:15:00,86.4,75.5,30.09,SE,131,5.0,11.0,70,0.00,,BKN041,0.03,348.00,VWS V14.01,2013-07-04 20:15:00,
2013-07-04 16:20:00,86.5,76.0,30.09,SSE,155,6.0,14.0,71,0.00,,BKN041,0.03,283.00,VWS V14.01,2013-07-04 20:20:00,
2013-07-04 16:25:00,86.6,75.7,30.09,East,97,8.0,16.0,70,0.00,,BKN041,0.03,721.00,VWS V14.01,2013-07-04 20:25:00,
2013-07-04 16:30:00,86.7,75.8,30.08,SSE,148,6.0,15.0,70,0.00,,BKN041,0.03,664.00,VWS V14.01,2013-07-04 20:30:00,
2013-07-04 16:35:00,87.0,75.6,30.08,East,84,9.0,15.0,69,0.00,,BKN044,0.03,234.00,VWS V14.01,2013-07-04 20:35:00,
2013-07-04 16:40:00,86.8,76.3,30.08,ESE,120,3.0,9.0,71,0.00,,BKN044,0.03,452.00,VWS V14.01,2013-07-04 20:40:00,
2013-07-04 16:45:00,87.0,76.0,30.08,ESE,119,3.0,9.0,70,0.00,,BKN044,0.03,411.00,VWS V14.01,2013-07-04 20:45:00,
2013-07-04 16:50:00,86.7,75.3,30.08,SE,130,6.0,12.0,69,0.00,,BKN039,0.03,438.00,VWS V14.01,2013-07-04 20:50:00,
2013-07-04 16:55:00,86.5,76.0,30.08,SSE,150,9.0,13.0,71,0.00,,BKN039,0.03,327.00,VWS V14.01,2013-07-04 20:55:00,
2013-07-04 17:00:00,86.2,75.3,30.08,SE,139,5.0,13.0,70,0.00,,BKN039,0.03,299.00,VWS V14.01,2013-07-04 21:00:00,
2013-07-04 17:05:00,86.1,75.2,30.08,ESE,121,4.0,13.0,70,0.00,,BKN039,0.03,348.00,VWS V14.01,2013-07-04 21:05:00,
2013-07-04 17:10:00,86.1,75.2,30.08,East,83,2.0,14.0,70,0.00,,BKN039,0.03,276.00,VWS V14.01,2013-07-04 21:10:00,
2013-07-04 17:15:00,86.0,75.5,30.08,East,90,5.0,10.0,71,0.00,,BKN039,0.03,323.00,VWS V14.01,2013-07-04 21:15:00,
2013-07-04 17:20:00,85.9,75.4,30.08,SSE,150,7.0,11.0,71,0.00,,BKN039,0.03,202.00,VWS V14.01,2013-07-04 21:20:00,
2013-07-04 17:25:00,85.7,75.6,30.08,SE,134,8.0,9.0,72,0.00,,BKN039,0.03,415.00,VWS V14.01,2013-07-04 21:25:00,
2013-07-04 17:30:00,86.1,76.0,30.08,SE,129,4.0,7.0,72,0.00,,BKN039,0.03,636.00,VWS V14.01,2013-07-04 21:30:00,
2013-07-04 17:35:00,86.6,76.1,30.09,SSE,150,7.0,13.0,71,0.00,,BKN039,0.03,635.00,VWS V14.01,2013-07-04 21:35:00,
2013-07-04 17:40:00,86.9,75.9,30.08,ESE,123,2.0,13.0,70,0.00,,BKN029,0.03,232.00,VWS V14.01,2013-07-04 21:40:00,
2013-07-04 17:45:00,86.4,75.9,30.08,NE,42,5.0,9.0,71,0.00,,BKN029,0.03,134.00,VWS V14.01,2013-07-04 21:45:00,
2013-07-04 17:50:00,85.9,75.4,30.08,East,90,6.0,11.0,71,0.00,,BKN029,0.03,111.00,VWS V14.01,2013-07-04 21:50:00,
2013-07-04 17:55:00,85.5,75.9,30.08,SSE,158,5.0,9.0,73,0.00,,BKN029,0.03,146.00,VWS V14.01,2013-07-04 21:55:00,
2013-07-04 18:00:00,85.2,75.2,30.08,South,190,3.0,9.0,72,0.00,,BKN029,0.03,234.00,VWS V14.01,2013-07-04 22:00:00,
2013-07-04 18:05:00,85.6,76.0,30.09,SE,129,8.0,11.0,73,0.00,,BKN029,0.03,178.00,VWS V14.01,2013-07-04 22:05:00,
2013-07-04 18:10:00,85.5,75.4,30.09,East,96,8.0,9.0,72,0.00,,BKN029,0.03,132.00,VWS V14.01,2013-07-04 22:10:00,
2013-07-04 18:11:00,85.6,75.5,30.09,ESE,110,8.0,9.0,72,0.00,,BKN029,0.03,132.00,VWS V14.01,2013-07-04 22:11:00,
2013-07-04 18:15:00,85.2,75.2,30.09,East,84,5.0,11.0,72,0.00,,BKN029,0.03,156.00,VWS V14.01,2013-07-04 22:15:00,
2013-07-04 18:20:00,85.1,75.1,30.09,ENE,63,2.0,9.0,72,0.00,,BKN029,0.03,396.00,VWS V14.01,2013-07-04 22:20:00,
2013-07-04 18:25:00,85.5,75.4,30.09,ESE,109,3.0,9.0,72,0.00,,BKN029,0.03,455.00,VWS V14.01,2013-07-04 22:25:00,
2013-07-04 18:30:00,85.7,75.2,30.08,East,86,3.0,10.0,71,0.00,,BKN029,0.03,301.00,VWS V14.01,2013-07-04 22:30:00,
2013-07-04 18:35:00,85.6,75.1,30.08,East,88,11.0,11.0,71,0.00,,BKN029,0.03,151.00,VWS V14.01,2013-07-04 22:35:00,
2013-07-04 18:40:00,85.5,75.0,30.09,ESE,116,3.0,7.0,71,0.00,,BKN055,0.03,241.00,VWS V14.01,2013-07-04 22:40:00,
2013-07-04 18:45:00,85.2,74.3,30.09,SE,142,5.0,13.0,70,0.00,,BKN055,0.03,207.00,VWS V14.01,2013-07-04 22:45:00,
2013-07-04 18:50:00,85.0,74.1,30.08,East,92,2.0,9.0,70,0.00,,BKN055,0.03,105.00,VWS V14.01,2013-07-04 22:50:00,
2013-07-04 18:55:00,84.9,74.4,30.09,SE,133,6.0,7.0,71,0.00,,BKN055,0.03,188.00,VWS V14.01,2013-07-04 22:55:00,
2013-07-04 19:00:00,84.8,75.2,30.09,ENE,69,2.0,7.0,73,0.00,,BKN055,0.03,151.00,VWS V14.01,2013-07-04 23:00:00,
2013-07-04 19:05:00,85.1,75.1,30.09,ESE,108,4.0,7.0,72,0.00,,BKN037,0.03,118.00,VWS V14.01,2013-07-04 23:05:00,
2013-07-04 19:10:00,85.0,75.0,30.09,SE,134,6.0,9.0,72,0.00,,BKN055,0.03,105.00,VWS V14.01,2013-07-04 23:10:00,
2013-07-04 19:15:00,84.8,75.2,30.10,NE,52,8.0,10.0,73,0.00,,BKN055,0.03,95.00,VWS V14.01,2013-07-04 23:15:00,
2013-07-04 19:20:00,84.5,74.5,30.10,East,86,8.0,8.0,72,0.00,,BKN055,0.03,84.00,VWS V14.01,2013-07-04 23:20:00,
2013-07-04 19:25:00,84.3,74.3,30.11,SE,134,1.0,8.0,72,0.00,,BKN055,0.03,98.00,VWS V14.01,2013-07-04 23:25:00,
2013-07-04 19:30:00,84.3,74.7,30.10,ENE,66,5.0,11.0,73,0.00,,BKN055,0.03,62.00,VWS V14.01,2013-07-04 23:30:00,
2013-07-04 19:35:00,84.2,74.6,30.10,SE,126,3.0,7.0,73,0.00,,SCT029,0.03,40.00,VWS V14.01,2013-07-04 23:35:00,
2013-07-04 19:40:00,84.1,75.3,30.11,East,88,3.0,8.0,75,0.00,,SCT029,0.03,33.00,VWS V14.01,2013-07-04 23:40:00,
2013-07-04 19:45:00,84.1,75.3,30.11,ENE,69,4.0,7.0,75,0.00,,SCT029,0.03,19.00,VWS V14.01,2013-07-04 23:45:00,
2013-07-04 19:50:00,83.9,75.1,30.11,NE,52,4.0,8.0,75,0.00,,SCT029,0.03,25.00,VWS V14.01,2013-07-04 23:50:00,
2013-07-04 19:55:00,83.8,75.4,30.11,NE,47,4.0,9.0,76,0.00,,SCT029,0.03,23.00,VWS V14.01,2013-07-04 23:55:00,
2013-07-04 20:00:00,83.8,75.4,30.11,East,88,3.0,8.0,76,0.00,,SCT029,0.03,14.00,VWS V14.01,2013-07-05 00:00:00,
2013-07-04 20:05:00,83.7,75.7,30.10,ENE,68,3.0,11.0,77,0.00,,SCT029,0.03,11.00,VWS V14.01,2013-07-05 00:05:00,
2013-07-04 20:10:00,83.6,75.6,30.10,NE,46,3.0,4.0,77,0.00,,FEW042,0.03,5.00,VWS V14.01,2013-07-05 00:10:00,
2013-07-04 20:15:00,83.5,75.5,30.10,ENE,65,2.0,8.0,77,0.00,,FEW042,0.03,0.00,VWS V14.01,2013-07-05 00:15:00,
2013-07-04 20:20:00,83.4,75.8,30.10,East,94,1.0,5.0,78,0.00,,FEW042,0.03,0.00,VWS V14.01,2013-07-05 00:20:00,
2013-07-04 20:25:00,83.2,75.6,30.10,ENE,69,2.0,5.0,78,0.00,,FEW042,0.03,0.00,VWS V14.01,2013-07-05 00:25:00,
2013-07-04 20:30:00,83.2,75.6,30.10,SE,134,3.0,8.0,78,0.00,,FEW042,0.03,0.00,VWS V14.01,2013-07-05 00:30:00,
2013-07-04 20:35:00,83.1,75.5,30.11,East,86,2.0,6.0,78,0.00,,FEW042,0.03,0.00,VWS V14.01,2013-07-05 00:35:00,
2013-07-04 20:40:00,83.0,75.4,30.11,East,86,2.0,9.0,78,0.00,,FEW042,0.03,0.00,VWS V14.01,2013-07-05 00:40:00,
2013-07-04 20:45:00,82.9,75.7,30.12,ESE,109,9.0,13.0,79,0.00,,FEW042,0.03,0.00,VWS V14.01,2013-07-05 00:45:00,
2013-07-04 20:50:00,82.9,75.7,30.12,ESE,115,1.0,7.0,79,0.00,,FEW042,0.03,0.00,VWS V14.01,2013-07-05 00:50:00,
2013-07-04 20:55:00,82.9,75.7,30.12,ESE,117,5.0,11.0,79,0.00,,FEW042,0.03,0.00,VWS V14.01,2013-07-05 00:55:00,
2013-07-04 21:00:00,82.8,75.2,30.13,SSE,149,5.0,6.0,78,0.00,,FEW042,0.03,0.00,VWS V14.01,2013-07-05 01:00:00,
2013-07-04 21:05:00,82.7,75.2,30.13,ENE,71,2.0,7.0,78,0.00,,FEW042,0.03,0.00,VWS V14.01,2013-07-05 01:05:00,
2013-07-04 21:10:00,82.7,75.2,30.13,SE,130,3.0,6.0,78,0.00,,FEW042,0.03,0.00,VWS V14.01,2013-07-05 01:10:00,
2013-07-04 21:15:00,82.7,75.2,30.13,SSE,157,5.0,8.0,78,0.00,,FEW042,0.03,0.00,VWS V14.01,2013-07-05 01:15:00,
2013-07-04 21:20:00,82.6,75.1,30.14,SE,136,4.0,8.0,78,0.00,,FEW042,0.03,0.00,VWS V14.01,2013-07-05 01:20:00,
2013-07-04 21:25:00,82.6,75.1,30.14,ENE,75,3.0,7.0,78,0.00,,FEW042,0.03,0.00,VWS V14.01,2013-07-05 01:25:00,
2013-07-04 21:30:00,82.6,75.1,30.14,ENE,63,1.0,9.0,78,0.00,,FEW042,0.03,0.00,VWS V14.01,2013-07-05 01:30:00,
2013-07-04 21:35:00,82.6,74.7,30.14,ESE,121,4.0,6.0,77,0.00,,FEW042,0.03,0.00,VWS V14.01,2013-07-05 01:35:00,
2013-07-04 21:40:00,82.7,74.8,30.14,SE,128,3.0,5.0,77,0.00,,SCT025,0.03,0.00,VWS V14.01,2013-07-05 01:40:00,
2013-07-04 21:45:00,82.6,72.7,30.16,SE,130,9.0,17.0,72,0.00,,SCT025,0.03,0.00,VWS V14.01,2013-07-05 01:45:00,
2013-07-04 21:50:00,81.8,71.1,30.16,East,96,6.0,16.0,70,0.00,,SCT025,0.03,0.00,VWS V14.01,2013-07-05 01:50:00,
2013-07-04 21:55:00,80.2,71.2,30.16,SE,130,4.0,10.0,74,0.01,,SCT025,0.04,0.00,VWS V14.01,2013-07-05 01:55:00,
2013-07-04 22:00:00,78.3,70.5,30.16,South,170,1.0,9.0,77,0.02,,SCT025,0.05,0.00,VWS V14.01,2013-07-05 02:00:00,
2013-07-04 22:05:00,76.8,70.2,30.16,SE,134,3.0,7.0,80,0.02,,SCT025,0.05,0.00,VWS V14.01,2013-07-05 02:05:00,
2013-07-04 22:10:00,75.8,69.9,30.16,ESE,114,1.0,7.0,82,0.02,,SCT025,0.05,0.00,VWS V14.01,2013-07-05 02:10:00,
2013-07-04 22:15:00,75.3,69.8,30.16,ESE,119,0.0,3.0,83,0.02,,SCT025,0.05,0.00,VWS V14.01,2013-07-05 02:15:00,
2013-07-04 22:20:00,75.0,69.8,30.16,ESE,117,0.0,0.0,84,0.02,,SCT025,0.05,0.00,VWS V14.01,2013-07-05 02:20:00,
2013-07-04 22:25:00,74.7,69.9,30.16,East,86,1.0,2.0,85,0.02,,SCT025,0.05,0.00,VWS V14.01,2013-07-05 02:25:00,
2013-07-04 22:30:00,74.7,70.2,30.16,NE,37,1.0,5.0,86,0.02,,SCT025,0.05,0.00,VWS V14.01,2013-07-05 02:30:00,
2013-07-04 22:35:00,74.7,70.2,30.16,ESE,110,0.0,2.0,86,0.02,,-RA,0.05,0.00,VWS V14.01,2013-07-05 02:35:00,
2013-07-04 22:40:00,74.8,70.7,30.16,ENE,63,0.0,0.0,87,0.02,,-RA,0.05,0.00,VWS V14.01,2013-07-05 02:40:00,
2013-07-04 22:45:00,74.9,70.8,30.16,SE,126,1.0,2.0,87,0.02,,-RA,0.05,0.00,VWS V14.01,2013-07-05 02:45:00,
2013-07-04 22:50:00,74.9,71.1,30.16,SE,126,0.0,1.0,88,0.02,,FEW070,0.05,0.00,VWS V14.01,2013-07-05 02:50:00,
2013-07-04 22:55:00,75.0,71.2,30.16,SE,126,0.0,0.0,88,0.01,,FEW070,0.05,0.00,VWS V14.01,2013-07-05 02:55:00,
2013-07-04 23:00:00,75.2,71.7,30.16,SE,126,0.0,0.0,89,0.00,,FEW070,0.05,0.00,VWS V14.01,2013-07-05 03:00:00,
2013-07-04 23:05:00,75.2,71.4,30.16,SE,126,0.0,0.0,88,0.00,,FEW070,0.05,0.00,VWS V14.01,2013-07-05 03:05:00,
2013-07-04 23:10:00,75.2,71.4,30.16,SE,126,0.0,0.0,88,0.00,,FEW070,0.05,0.00,VWS V14.01,2013-07-05 03:10:00,
2013-07-04 23:15:00,75.3,71.8,30.16,SE,126,0.0,0.0,89,0.00,,-RA,0.05,0.00,VWS V14.01,2013-07-05 03:15:00,
2013-07-04 23:20:00,75.3,71.8,30.16,SE,126,0.0,1.0,89,0.00,,FEW070,0.05,0.00,VWS V14.01,2013-07-05 03:20:00,
2013-07-04 23:25:00,75.3,71.8,30.16,SE,126,0.0,0.0,89,0.00,,FEW070,0.05,0.00,VWS V14.01,2013-07-05 03:25:00,
2013-07-04 23:30:00,75.3,72.2,30.16,SE,126,0.0,0.0,90,0.00,,FEW070,0.05,0.00,VWS V14.01,2013-07-05 03:30:00,
2013-07-04 23:35:00,75.5,72.4,30.16,SE,126,0.0,0.0,90,0.00,,FEW070,0.05,0.00,VWS V14.01,2013-07-05 03:35:00,
2013-07-04 23:40:00,75.6,72.5,30.15,SE,126,0.0,0.0,90,0.00,,-RA,0.05,0.00,VWS V14.01,2013-07-05 03:40:00,
2013-07-04 23:45:00,75.7,72.6,30.14,SE,126,0.0,0.0,90,0.00,,-RA,0.05,0.00,VWS V14.01,2013-07-05 03:45:00,
2013-07-04 23:50:00,75.7,72.6,30.14,SE,126,0.0,0.0,90,0.00,,-RA,0.05,0.00,VWS V14.01,2013-07-05 03:50:00,
2013-07-04 23:55:00,75.6,72.1,30.14,SE,126,0.0,0.0,89,0.00,,-RA,0.05,0.00,VWS V14.01,2013-07-05 03:55:00,